Home   Weather   Bratislava   Past weeks

Flag for Slovakia Past Weather in Bratislava, Slovakia — Yesterday and Last 2 Weeks

Now
50 °F

Overcast.


Feels Like: 46 °F
Forecast: 41 / 48 °F
Wind: 9 mph from Northwest

Location: Bratislava Ivanka

Current Time: Apr 27, 2017 at 5:28:23 pm

Latest Report: Apr 27, 2017 at 5:00 pm


Visibility: N/A

Pressure: 29.89 "Hg

Humidity: 71%

Dew Point: 41 °F

Location of BratislavaLocation

Past Weather in Bratislava — Graph

°F

Bratislava Temperature Yesterday

Maximum temperature yesterday: 66 °F (at 4:30 pm)
Minimum temperature yesterday: 48 °F (at 4:00 am)
Average temperature yesterday: 55 °F

High & Low Weather Summary for the Past Weeks

 TemperatureHumidityPressure
High73 °F (Apr 25, 2:30 pm)94% (Apr 13, 6:00 am)30.45 "Hg (Apr 13, 6:00 am)
Low32 °F (Apr 21, 6:00 am)31% (Apr 25, 4:00 pm)29.65 "Hg (Apr 25, 6:30 pm)
Average48 °F64%30.00 "Hg
* Reported Apr 12 4:00 pm — Apr 27 4:00 pm, Bratislava, Weather by CustomWeather, © 2017

Note: Actual official high and low records may vary slightly from our data, if they occured in-between our weather recording intervals... More about our weather records

Advertising

Bratislava Weather History for the Previous 24 Hours

Scroll right to see more
 ConditionsComfort  
Time TempWeatherWind HumidityBarometerVisibility
4:00 pm
Thu, Apr 27
50 °FPartly sunny.8 mph71%29.89 "HgN/A
3:30 pm50 °FBroken clouds.12 mph71%29.89 "HgN/A
3:00 pm50 °FBroken clouds.8 mph71%29.92 "HgN/A
2:30 pm50 °FBroken clouds.9 mph71%29.92 "HgN/A
2:00 pm50 °FBroken clouds.8 mph71%29.89 "HgN/A
1:30 pm50 °FBroken clouds.13 mph71%29.89 "HgN/A
1:00 pm48 °FBroken clouds.13 mph76%29.89 "HgN/A
12:30 pm46 °FBroken clouds.17 mph76%29.89 "HgN/A
12:00 pm46 °FCloudy.14 mph82%29.89 "HgN/A
11:30 am45 °FLight rain. Broken clouds.15 mph87%29.89 "HgN/A
11:00 am45 °FMostly cloudy.13 mph81%29.89 "HgN/A
10:30 am45 °FLight rain. Cloudy.10 mph87%29.86 "HgN/A
10:00 am45 °FLight rain. Mostly cloudy.10 mph81%29.86 "HgN/A
9:30 am43 °FLight rain. Mostly cloudy.12 mph87%29.86 "HgN/A
9:00 am45 °FLight rain. More clouds than sun.9 mph81%29.83 "HgN/A
8:30 am45 °FDrizzle. More clouds than sun.10 mph81%29.83 "HgN/A
8:00 am45 °FDrizzle. Low clouds.13 mph81%29.83 "HgN/A
7:30 am45 °FDrizzle. Low clouds.9 mph81%29.83 "HgN/A
7:00 am45 °FDrizzle. Low clouds.8 mph87%29.80 "HgN/A
6:30 am45 °FDrizzle. Overcast.10 mph87%29.80 "HgN/A
6:00 am45 °FOvercast.9 mph87%29.80 "HgN/A
5:30 am45 °FOvercast.9 mph87%29.80 "HgN/A
5:00 am45 °FLight rain. Overcast.6 mph93%29.80 "HgN/A
4:30 am45 °FLight rain. Overcast.6 mph87%29.80 "Hg6 mi
3:30 am45 °FOvercast.6 mph87%29.80 "HgN/A
3:00 am45 °FOvercast.6 mph87%29.80 "HgN/A
2:30 am46 °FLight rain. Overcast.10 mph82%29.83 "HgN/A
2:00 am46 °FClear.8 mph82%29.80 "Hg10 mi
1:30 am46 °FClear.5 mph82%29.83 "Hg10 mi
1:00 am46 °FClear.6 mph82%29.83 "Hg10 mi
12:30 am46 °FClear.6 mph82%29.83 "Hg10 mi
12:00 am46 °FClear.8 mph82%29.83 "Hg10 mi
11:30 pm
Wed, Apr 26
48 °FPassing clouds.8 mph76%29.83 "HgN/A
11:00 pm48 °FClear.8 mph76%29.83 "Hg10 mi
10:30 pm50 °FClear.12 mph76%29.83 "Hg10 mi
10:00 pm50 °FClear.9 mph76%29.80 "Hg10 mi
9:30 pm52 °FPassing clouds.8 mph72%29.80 "HgN/A
9:00 pm52 °FPassing clouds.10 mph72%29.80 "HgN/A
8:30 pm52 °FPassing clouds.12 mph72%29.77 "HgN/A
8:00 pm54 °FPassing clouds.12 mph72%29.77 "HgN/A
7:30 pm55 °FScattered clouds.13 mph67%29.77 "HgN/A
7:00 pm57 °FSunny.12 mph67%29.74 "Hg10 mi
6:30 pm61 °FLight rain. Clear.14 mph63%29.74 "HgN/A
6:00 pm64 °FSunny.13 mph52%29.74 "Hg10 mi
5:30 pm66 °FSunny.15 mph49%29.71 "Hg10 mi
5:00 pm66 °FSunny.17 mph49%29.71 "Hg10 mi
Weather by CustomWeather, © 2017

See weather overviewHow to use our weather pages